CW0138 Weather Reports


time (UTC)temp
C
wind
direction
speed
KPH
gust
KPH
rain 1hr
cm
rain 24hr
cm
rain mn
cm
humidity
%
barometer
mb
20260503224304 26 223 0.0 4.8 0.00 0.00 0.00 47 1010.0
20260503223804 25 278 1.6 3.2 0.00 0.00 0.00 46 1010.1
20260503223305 25 272 0.0 0.0 0.00 0.00 0.00 46 1010.2
20260503222305 25 272 0.0 0.0 0.00 0.00 0.00 48 1010.3
20260503221805 25 272 0.0 3.2 0.00 0.00 0.00 47 1010.4
20260503221304 25 272 1.6 4.8 0.00 0.00 0.00 46 1010.5
20260503220805 25 188 0.0 3.2 0.00 0.00 0.00 47 1010.6
20260503215804 25 242 0.0 3.2 0.00 0.00 0.00 47 1010.7
20260503215304 25 236 1.6 3.2 0.00 0.00 0.00 47 1010.7
20260503214805 25 236 1.6 4.8 0.00 0.00 0.00 48 1010.8
20260503214305 25 244 1.6 3.2 0.00 0.00 0.00 48 1010.8
20260503213805 25 244 1.6 3.2 0.00 0.00 0.00 47 1010.8
20260503213304 25 244 1.6 3.2 0.00 0.00 0.00 46 1010.8
20260503212805 25 300 1.6 4.8 0.00 0.00 0.00 46 1010.9
20260503212305 25 299 0.0 3.2 0.00 0.00 0.00 47 1010.9
20260503211805 24 244 0.0 4.8 0.00 0.00 0.00 47 1010.9
20260503210805 24 255 1.6 4.8 0.00 0.00 0.00 46 1011.0
20260503205805 24 296 1.6 3.2 0.00 0.00 0.00 47 1011.1
20260503205304 24 288 1.6 4.8 0.00 0.00 0.00 47 1011.1
20260503204805 24 248 1.6 3.2 0.00 0.00 0.00 48 1011.1
20260503204305 24 248 0.0 3.2 0.00 0.00 0.00 49 1011.2
20260503203805 24 248 0.0 3.2 0.00 0.00 0.00 48 1011.3
20260503202304 24 219 1.6 4.8 0.00 0.00 0.00 48 1011.3
20260503201305 24 212 0.0 1.6 0.00 0.00 0.00 49 1011.5
20260503200805 24 212 1.6 1.6 0.00 0.00 0.00 48 1011.5
20260503195304 24 217 1.6 4.8 0.00 0.00 0.00 49 1011.7
20260503194804 24 226 0.0 3.2 0.00 0.00 0.00 49 1011.8
20260503194305 24 244 1.6 3.2 0.00 0.00 0.00 49 1011.9
20260503193804 24 207 1.6 4.8 0.00 0.00 0.00 50 1012.0
20260503193305 23 215 0.0 1.6 0.00 0.00 0.00 50 1012.1
20260503192804 23 215 0.0 3.2 0.00 0.00 0.00 49 1012.1
20260503192305 23 215 0.0 3.2 0.00 0.00 0.00 50 1012.1
20260503191804 23 214 0.0 3.2 0.00 0.00 0.00 52 1012.1
20260503191305 23 209 1.6 4.8 0.00 0.00 0.00 50 1012.2
20260503190805 23 146 1.6 4.8 0.00 0.00 0.00 51 1012.2
20260503190305 23 196 1.6 3.2 0.00 0.00 0.00 50 1012.3
20260503185804 23 196 1.6 3.2 0.00 0.00 0.00 51 1012.4
20260503185305 23 195 1.6 4.8 0.00 0.00 0.00 51 1012.4
20260503184805 23 206 1.6 4.8 0.00 0.00 0.00 51 1012.5
20260503184306 23 149 1.6 4.8 0.00 0.00 0.00 51 1012.5
20260503183804 23 319 1.6 3.2 0.00 0.00 0.00 52 1012.6
20260503183305 22 319 1.6 3.2 0.00 0.00 0.00 53 1012.7
20260503182804 22 4 0.0 1.6 0.00 0.00 0.00 52 1012.7
20260503182306 22 5 0.0 3.2 0.00 0.00 0.00 53 1012.7
20260503181805 22 5 3.2 4.8 0.00 0.00 0.00 50 1012.7
20260503181305 22 348 0.0 3.2 0.00 0.00 0.00 51 1012.7
20260503180805 22 348 1.6 3.2 0.00 0.00 0.00 51 1012.8
20260503180304 22 6 4.8 11.3 0.00 0.00 0.00 53 1012.8
20260503175804 22 9 1.6 4.8 0.00 0.00 0.00 56 1012.8
20260503175305 21 10 0.0 3.2 0.00 0.00 0.00 56 1012.9
20260503174804 21 10 1.6 4.8 0.00 0.00 0.00 54 1012.9
20260503174305 21 8 3.2 8.0 0.00 0.00 0.00 54 1012.9
20260503172804 21 7 4.8 8.0 0.00 0.00 0.00 51 1013.1
20260503172305 21 10 1.6 4.8 0.00 0.00 0.00 52 1013.1
20260503171805 21 5 0.0 4.8 0.00 0.00 0.00 53 1013.1
20260503171305 21 315 0.0 4.8 0.00 0.00 0.00 52 1013.1
20260503170805 21 290 0.0 3.2 0.00 0.00 0.00 53 1013.1
20260503170305 21 290 1.6 3.2 0.00 0.00 0.00 55 1013.1
20260503150804 16 0 0.0 0.0 0.00 0.00 0.00 73 1013.5
20260503150304 16 0 0.0 0.0 0.00 0.00 0.00 73 1013.6
20260503140305 12 0 0.0 0.0 0.00 0.00 0.00 85 1013.3
20260503131304 12 0 0.0 0.0 0.00 0.00 0.00 84 1013.1
20260503130805 12 0 0.0 0.0 0.00 0.00 0.00 84 1013.1
20260503110806 12 0 0.0 0.0 0.00 0.00 0.00 81 1013.5
20260503110305 12 0 0.0 0.0 0.00 0.00 0.00 80 1013.5
20260503090305 13 0 0.0 0.0 0.00 0.00 0.00 73 1013.6
20260503081305 13 0 0.0 0.0 0.00 0.00 0.00 70 1013.6
20260503080805 13 0 0.0 0.0 0.00 0.00 0.00 70 1013.6
20260503080304 13 0 0.0 0.0 0.00 0.00 0.00 71 1013.6
20260503072804 13 0 0.0 0.0 0.00 0.00 0.00 70 1013.5
20260503071305 14 0 0.0 0.0 0.00 0.00 0.00 71 1013.4
20260503070804 14 0 0.0 0.0 0.00 0.00 0.00 70 1013.4
20260503070304 14 0 0.0 0.0 0.00 0.00 0.00 70 1013.4
20260503060305 15 0 0.0 0.0 0.00 0.00 0.00 68 1013.4
20260503054804 15 0 0.0 0.0 0.00 0.00 0.00 67 1013.4
20260503054304 15 0 0.0 0.0 0.00 0.00 0.00 67 1013.4
20260503053804 15 0 0.0 0.0 0.00 0.00 0.00 67 1013.4
20260503053304 15 0 0.0 0.0 0.00 0.00 0.00 67 1013.4
20260503052804 16 0 0.0 0.0 0.00 0.00 0.00 66 1013.4
20260503052305 16 0 0.0 0.0 0.00 0.00 0.00 66 1013.5
20260503051304 16 0 0.0 0.0 0.00 0.00 0.00 65 1013.4
20260503050304 16 0 0.0 0.0 0.00 0.00 0.00 64 1013.4
20260503045804 16 0 0.0 0.0 0.00 0.00 0.00 63 1013.3
20260503045305 16 0 0.0 0.0 0.00 0.00 0.00 63 1013.3
20260503044804 16 0 0.0 0.0 0.00 0.00 0.00 63 1013.2
20260503044304 17 0 0.0 0.0 0.00 0.00 0.00 63 1013.2
20260503043805 17 0 0.0 0.0 0.00 0.00 0.00 62 1013.1
20260503043304 17 0 0.0 0.0 0.00 0.00 0.00 59 1013.1
20260503042804 17 0 0.0 0.0 0.00 0.00 0.00 60 1013.1
20260503042305 17 0 0.0 0.0 0.00 0.00 0.00 60 1013.0
20260503041804 17 0 0.0 0.0 0.00 0.00 0.00 60 1012.9
20260503041304 17 0 0.0 0.0 0.00 0.00 0.00 59 1012.8
20260503040804 17 0 0.0 0.0 0.00 0.00 0.00 59 1012.7
20260503040306 18 0 0.0 0.0 0.00 0.00 0.00 59 1012.7
20260503035804 18 0 0.0 0.0 0.00 0.00 0.00 58 1012.6
20260503034304 18 0 0.0 0.0 0.00 0.00 0.00 57 1012.4
20260503033305 18 0 0.0 0.0 0.00 0.00 0.00 58 1012.3
20260503032804 19 0 0.0 0.0 0.00 0.00 0.00 58 1012.3
20260503031804 20 0 0.0 0.0 0.00 0.00 0.00 57 1012.2
20260503030805 20 0 0.0 0.0 0.00 0.00 0.00 55 1012.1
20260503030304 20 0 0.0 0.0 0.00 0.00 0.00 54 1012.0
20260503025804 20 0 0.0 0.0 0.00 0.00 0.00 52 1012.0
20260503025305 20 0 0.0 0.0 0.00 0.00 0.00 51 1012.0
20260503024804 20 0 0.0 0.0 0.00 0.00 0.00 50 1011.9
20260503024304 21 0 0.0 3.2 0.00 0.00 0.00 50 1011.9
20260503023804 21 0 0.0 3.2 0.00 0.00 0.00 50 1011.9
20260503023305 21 0 0.0 3.2 0.00 0.00 0.00 50 1011.9
20260503022804 21 0 0.0 4.8 0.00 0.00 0.00 49 1011.9
20260503022305 21 0 0.0 0.0 0.00 0.00 0.00 50 1011.8
20260503021304 21 0 1.6 3.2 0.00 0.00 0.00 49 1011.9
20260503020805 21 0 0.0 3.2 0.00 0.00 0.00 49 1011.9
20260503020305 21 0 1.6 3.2 0.00 0.00 0.00 50 1011.9
20260503015805 21 0 1.6 4.8 0.00 0.00 0.00 50 1011.9
20260503015305 21 0 1.6 4.8 0.00 0.00 0.00 49 1012.0
20260503014804 21 0 1.6 4.8 0.00 0.00 0.00 50 1012.0
20260503014304 22 0 3.2 4.8 0.00 0.00 0.00 50 1012.0
20260503013804 22 0 1.6 4.8 0.00 0.00 0.00 51 1012.0
20260503012805 22 0 1.6 4.8 0.00 0.00 0.00 51 1012.1
20260503012305 22 0 3.2 4.8 0.00 0.00 0.00 52 1012.1
20260503011805 22 0 1.6 4.8 0.00 0.00 0.00 52 1012.1
20260503010804 22 0 0.0 3.2 0.00 0.00 0.00 55 1012.1
20260503010305 22 0 1.6 4.8 0.00 0.00 0.00 55 1012.2
20260503005304 22 0 0.0 0.0 0.00 0.00 0.00 56 1012.2
20260503004305 22 0 0.0 0.0 0.00 0.00 0.00 56 1012.2
20260503003304 22 0 0.0 1.6 0.00 0.00 0.00 56 1012.3
20260503002804 22 0 0.0 0.0 0.00 0.00 0.00 56 1012.3
20260503002305 22 0 0.0 0.0 0.00 0.00 0.00 56 1012.2
20260503001804 22 0 0.0 1.6 0.00 0.00 0.00 57 1012.2
20260503001304 22 0 0.0 0.0 0.00 0.00 0.00 56 1012.2
20260503000804 22 0 0.0 1.6 0.00 0.00 0.00 56 1012.3
20260503000304 22 0 0.0 3.2 0.00 0.00 0.00 56 1012.3
20260502235804 22 0 0.0 3.2 0.00 0.00 0.00 55 1012.4
20260502235305 22 0 0.0 3.2 0.00 0.00 0.00 56 1012.4
20260502234804 22 0 1.6 3.2 0.00 0.00 0.00 55 1012.5
20260502234304 22 0 0.0 1.6 0.00 0.00 0.00 55 1012.6
20260502233804 22 0 0.0 1.6 0.00 0.00 0.00 56 1012.7
20260502233304 22 206 0.0 4.8 0.00 0.00 0.00 56 1012.7
20260502232804 23 225 0.0 4.8 0.00 0.00 0.00 55 1012.8
20260502232305 23 228 0.0 1.6 0.00 0.00 0.00 55 1012.8
20260502231804 23 0 0.0 1.6 0.00 0.00 0.00 54 1012.9
20260502231304 23 227 0.0 3.2 0.00 0.00 0.00 55 1013.0
20260502230804 23 228 0.0 3.2 0.00 0.00 0.00 55 1013.1
20260502225804 23 292 0.0 3.2 0.00 0.00 0.00 55 1013.3
20260502225305 23 265 0.0 3.2 0.00 0.00 0.00 52 1013.4